| time (UTC) | temp F | wind direction | speed knots | gust knots | rain 1hr in | rain 24hr in | rain mn in | humidity % | barometer mb |
| 20260906202511 | 82 | 105 | 2.6 | 12.2 | 0.00 | 0.00 | 0.00 | 63 | 1021.8 |
| 20260906202012 | 82 | 150 | 1.7 | 7.8 | 0.00 | 0.00 | 0.00 | 64 | 1021.8 |
| 20260906201535 | 81 | 144 | 2.6 | 7.8 | 0.00 | 0.00 | 0.00 | 64 | 1021.7 |
| 20260906201012 | 82 | 133 | 2.6 | 7.8 | 0.00 | 0.00 | 0.00 | 65 | 1021.7 |
| 20260906200516 | 81 | 25 | 1.7 | 10.4 | 0.00 | 0.00 | 0.00 | 64 | 1021.8 |
| 20260906200025 | 82 | 130 | 5.2 | 10.4 | 0.00 | 0.00 | 0.00 | 65 | 1022.0 |
| 20260906195515 | 82 | 81 | 1.7 | 9.6 | 0.00 | 0.00 | 0.00 | 67 | 1022.0 |
| 20260906195152 | 81 | 159 | 2.6 | 8.7 | 0.00 | 0.00 | 0.00 | 65 | 1022.0 |
| 20260906194528 | 82 | 120 | 3.5 | 7.8 | 0.00 | 0.00 | 0.00 | 65 | 1022.0 |
| 20260906194003 | 82 | 139 | 1.7 | 11.3 | 0.00 | 0.00 | 0.00 | 66 | 1022.0 |
| 20260906193507 | 81 | 56 | 4.3 | 11.3 | 0.00 | 0.00 | 0.00 | 65 | 1022.1 |
| 20260906193020 | 81 | 126 | 2.6 | 9.6 | 0.00 | 0.00 | 0.00 | 65 | 1022.0 |
| 20260906192507 | 81 | 109 | 2.6 | 7.8 | 0.00 | 0.00 | 0.00 | 67 | 1022.0 |
| 20260906192012 | 81 | 94 | 2.6 | 7.8 | 0.00 | 0.00 | 0.00 | 66 | 1022.0 |
| 20260906191516 | 81 | 172 | 4.3 | 7.8 | 0.00 | 0.00 | 0.00 | 66 | 1022.1 |
| 20260906191011 | 81 | 132 | 0.9 | 5.2 | 0.00 | 0.00 | 0.00 | 67 | 1022.1 |
| 20260906190512 | 80 | 93 | 1.7 | 8.7 | 0.00 | 0.00 | 0.00 | 68 | 1022.2 |
| 20260906190027 | 80 | 152 | 2.6 | 11.3 | 0.00 | 0.00 | 0.00 | 69 | 1022.4 |
| 20260906185513 | 80 | 101 | 3.5 | 11.3 | 0.00 | 0.00 | 0.00 | 68 | 1022.3 |
| 20260906185019 | 80 | 142 | 1.7 | 9.6 | 0.00 | 0.00 | 0.00 | 68 | 1022.3 |
| 20260906184723 | 80 | 180 | 1.7 | 7.0 | 0.00 | 0.00 | 0.00 | 69 | 1022.4 |
| 20260906184015 | 79 | 170 | 3.5 | 7.0 | 0.00 | 0.00 | 0.00 | 70 | 1022.4 |
| 20260906183516 | 79 | 190 | 1.7 | 6.1 | 0.00 | 0.00 | 0.00 | 70 | 1022.5 |
| 20260906183007 | 79 | 126 | 0.9 | 6.1 | 0.00 | 0.00 | 0.00 | 73 | 1022.7 |
| 20260906182517 | 80 | 61 | 0.9 | 7.8 | 0.00 | 0.00 | 0.00 | 69 | 1022.7 |
| 20260906182008 | 79 | 161 | 1.7 | 8.7 | 0.00 | 0.00 | 0.00 | 69 | 1022.6 |
| 20260906181517 | 79 | 146 | 3.5 | 8.7 | 0.00 | 0.00 | 0.00 | 71 | 1022.6 |
| 20260906181012 | 78 | 174 | 1.7 | 6.1 | 0.00 | 0.00 | 0.00 | 72 | 1022.6 |
| 20260906180515 | 79 | 143 | 1.7 | 9.6 | 0.00 | 0.00 | 0.00 | 71 | 1022.8 |
| 20260906180027 | 79 | 173 | 3.5 | 9.6 | 0.00 | 0.00 | 0.00 | 70 | 1022.9 |
| 20260906175513 | 79 | 150 | 2.6 | 9.6 | 0.00 | 0.00 | 0.00 | 70 | 1022.9 |
| 20260906175016 | 79 | 163 | 1.7 | 7.0 | 0.00 | 0.00 | 0.00 | 73 | 1023.0 |
| 20260906174537 | 78 | 124 | 0.0 | 7.8 | 0.00 | 0.00 | 0.00 | 74 | 1023.1 |
| 20260906174053 | 78 | 152 | 2.6 | 7.8 | 0.00 | 0.00 | 0.00 | 74 | 1023.3 |
| 20260906174049 | 78 | 117 | 2.6 | 5.2 | 0.00 | 0.00 | 0.00 | 75 | 1023.6 |
| 20260906174046 | 77 | 144 | 0.9 | 7.8 | 0.00 | 0.00 | 0.00 | 75 | 1023.6 |
| 20260906174040 | 77 | 152 | 1.7 | 7.8 | 0.00 | 0.00 | 0.00 | 75 | 1023.8 |
| 20260906174038 | 77 | 194 | 0.9 | 7.0 | 0.00 | 0.00 | 0.00 | 74 | 1023.8 |
| 20260906174033 | 76 | 142 | 1.7 | 7.0 | 0.00 | 0.00 | 0.00 | 76 | 1024.2 |
| 20260906162653 | 75 | 187 | 0.9 | 7.0 | 0.00 | 0.00 | 0.00 | 78 | 1024.2 |
| 20260906162647 | 74 | 126 | 0.9 | 7.0 | 0.00 | 0.00 | 0.00 | 79 | 1024.1 |
| 20260906162641 | 73 | 136 | 0.9 | 7.8 | 0.00 | 0.00 | 0.00 | 82 | 1024.1 |
| 20260906162638 | 72 | 157 | 0.0 | 4.3 | 0.00 | 0.00 | 0.00 | 83 | 1024.0 |
| 20260906162635 | 71 | 139 | 0.9 | 4.3 | 0.00 | 0.00 | 0.00 | 83 | 1024.0 |
| 20260906145511 | 66 | 118 | 0.9 | 3.5 | 0.00 | 0.00 | 0.00 | 88 | 1024.1 |
| 20260906145012 | 66 | 166 | 0.9 | 4.3 | 0.00 | 0.00 | 0.00 | 89 | 1024.1 |
| 20260906144521 | 65 | 175 | 0.9 | 4.3 | 0.00 | 0.00 | 0.00 | 90 | 1024.1 |
| 20260906144013 | 65 | 196 | 0.9 | 4.3 | 0.00 | 0.00 | 0.00 | 90 | 1024.1 |
| 20260906143512 | 64 | 113 | 0.0 | 5.2 | 0.00 | 0.00 | 0.00 | 90 | 1024.0 |
| 20260906143036 | 64 | 114 | 0.0 | 6.1 | 0.00 | 0.00 | 0.00 | 90 | 1023.9 |
| 20260906142515 | 64 | 148 | 0.0 | 6.1 | 0.00 | 0.00 | 0.00 | 90 | 1023.9 |
| 20260906142014 | 63 | 90 | 0.9 | 4.3 | 0.00 | 0.00 | 0.00 | 91 | 1023.9 |
| 20260906141527 | 63 | 78 | 0.9 | 1.7 | 0.00 | 0.00 | 0.00 | 91 | 1023.8 |
| 20260906141015 | 63 | 70 | 0.9 | 1.7 | 0.00 | 0.00 | 0.00 | 91 | 1023.9 |
| 20260906140515 | 62 | 71 | 0.0 | 1.7 | 0.00 | 0.00 | 0.00 | 92 | 1024.0 |
| 20260906140034 | 62 | 80 | 0.0 | 1.7 | 0.00 | 0.00 | 0.00 | 92 | 1024.0 |
| 20260906135511 | 62 | 71 | 0.0 | 1.7 | 0.00 | 0.00 | 0.00 | 93 | 1024.1 |
| 20260906135009 | 61 | 124 | 0.0 | 1.7 | 0.00 | 0.00 | 0.00 | 93 | 1024.1 |
| 20260906134520 | 61 | 76 | 0.0 | 1.7 | 0.00 | 0.00 | 0.00 | 93 | 1024.1 |
| 20260906134013 | 61 | 173 | 0.0 | 2.6 | 0.00 | 0.00 | 0.00 | 93 | 1024.2 |
| 20260906133512 | 60 | 57 | 0.0 | 5.2 | 0.00 | 0.00 | 0.00 | 93 | 1024.2 |
| 20260906133027 | 60 | 178 | 0.0 | 5.2 | 0.00 | 0.00 | 0.00 | 93 | 1024.0 |
| 20260906132517 | 60 | 151 | 0.9 | 7.8 | 0.00 | 0.00 | 0.00 | 93 | 1023.9 |
| 20260906132015 | 60 | 117 | 1.7 | 7.8 | 0.00 | 0.00 | 0.00 | 93 | 1023.7 |
| 20260906131528 | 59 | 142 | 0.9 | 3.5 | 0.00 | 0.00 | 0.00 | 93 | 1023.8 |
| 20260906131005 | 59 | 142 | 0.9 | 4.3 | 0.00 | 0.00 | 0.00 | 93 | 1023.9 |
| 20260906130505 | 59 | 140 | 0.9 | 4.3 | 0.00 | 0.00 | 0.00 | 93 | 1024.1 |
| 20260906130009 | 59 | 137 | 0.0 | 2.6 | 0.00 | 0.00 | 0.00 | 93 | 1024.1 |
| 20260906125507 | 59 | 144 | 0.0 | 2.6 | 0.00 | 0.00 | 0.00 | 93 | 1024.2 |
| 20260906125008 | 59 | 147 | 0.0 | 1.7 | 0.00 | 0.00 | 0.00 | 93 | 1024.4 |
| 20260906124514 | 59 | 162 | 0.0 | 1.7 | 0.00 | 0.00 | 0.00 | 93 | 1024.4 |
| 20260906124010 | 59 | 93 | 0.0 | 3.5 | 0.00 | 0.00 | 0.00 | 94 | 1024.1 |
| 20260906123511 | 59 | 141 | 1.7 | 4.3 | 0.00 | 0.00 | 0.00 | 94 | 1023.9 |
| 20260906123037 | 59 | 123 | 1.7 | 4.3 | 0.00 | 0.00 | 0.00 | 94 | 1023.9 |
| 20260906122515 | 59 | 137 | 0.9 | 4.3 | 0.00 | 0.00 | 0.00 | 94 | 1024.1 |
| 20260906122014 | 59 | 163 | 0.0 | 2.6 | 0.00 | 0.00 | 0.00 | 94 | 1024.1 |
| 20260906121525 | 59 | 145 | 0.0 | 1.7 | 0.00 | 0.00 | 0.00 | 94 | 1023.9 |
| 20260906121017 | 59 | 145 | 0.9 | 1.7 | 0.00 | 0.00 | 0.00 | 94 | 1023.8 |
| 20260906120516 | 59 | 163 | 0.0 | 1.7 | 0.00 | 0.00 | 0.00 | 94 | 1023.8 |
| 20260906120008 | 59 | 144 | 0.0 | 2.6 | 0.00 | 0.00 | 0.00 | 94 | 1023.9 |
| 20260906115511 | 59 | 139 | 0.0 | 2.6 | 0.00 | 0.00 | 0.00 | 94 | 1023.8 |
| 20260906115008 | 59 | 140 | 0.0 | 1.7 | 0.00 | 0.00 | 0.00 | 94 | 1023.8 |
| 20260906114515 | 59 | 142 | 0.0 | 1.7 | 0.00 | 0.00 | 0.00 | 93 | 1023.7 |
| 20260906114009 | 59 | 142 | 0.0 | 1.7 | 0.00 | 0.00 | 0.00 | 93 | 1023.9 |
| 20260906113509 | 59 | 142 | 0.0 | 1.7 | 0.00 | 0.00 | 0.00 | 93 | 1023.8 |
| 20260906113021 | 59 | 142 | 0.0 | 1.7 | 0.00 | 0.00 | 0.00 | 93 | 1023.7 |
| 20260906112517 | 59 | 142 | 0.0 | 0.0 | 0.00 | 0.00 | 0.00 | 93 | 1023.6 |
| 20260906112014 | 59 | 142 | 0.0 | 1.7 | 0.00 | 0.00 | 0.00 | 93 | 1023.6 |
| 20260906111528 | 59 | 142 | 0.0 | 1.7 | 0.00 | 0.00 | 0.00 | 93 | 1023.5 |
| 20260906111014 | 59 | 142 | 0.0 | 0.9 | 0.00 | 0.00 | 0.00 | 93 | 1023.4 |
| 20260906110515 | 59 | 142 | 0.0 | 1.7 | 0.00 | 0.00 | 0.00 | 93 | 1023.2 |
| 20260906110028 | 59 | 142 | 0.0 | 1.7 | 0.00 | 0.00 | 0.00 | 93 | 1023.1 |
| 20260906105514 | 59 | 142 | 0.0 | 0.0 | 0.00 | 0.00 | 0.00 | 93 | 1023.1 |
| 20260906105016 | 59 | 142 | 0.0 | 1.7 | 0.00 | 0.00 | 0.00 | 93 | 1023.2 |
| 20260906104512 | 59 | 142 | 0.0 | 2.6 | 0.00 | 0.00 | 0.00 | 93 | 1023.2 |
| 20260906104009 | 59 | 143 | 0.0 | 2.6 | 0.00 | 0.00 | 0.00 | 93 | 1023.1 |
| 20260906103508 | 59 | 169 | 0.0 | 1.7 | 0.00 | 0.00 | 0.00 | 93 | 1023.1 |
| 20260906103019 | 59 | 176 | 0.0 | 2.6 | 0.00 | 0.00 | 0.00 | 93 | 1022.8 |
| 20260906102510 | 59 | 165 | 0.0 | 2.6 | 0.00 | 0.00 | 0.00 | 93 | 1022.7 |
| 20260906102012 | 59 | 143 | 0.0 | 1.7 | 0.00 | 0.00 | 0.00 | 93 | 1022.6 |
| 20260906101529 | 59 | 151 | 0.0 | 1.7 | 0.00 | 0.00 | 0.00 | 93 | 1022.6 |
| 20260906101015 | 59 | 173 | 0.0 | 2.6 | 0.00 | 0.00 | 0.00 | 93 | 1022.6 |
| 20260906100516 | 59 | 121 | 0.0 | 2.6 | 0.00 | 0.00 | 0.00 | 93 | 1022.7 |
| 20260906100030 | 59 | 118 | 0.0 | 1.7 | 0.00 | 0.00 | 0.00 | 93 | 1022.6 |
| 20260906095513 | 59 | 92 | 0.0 | 1.7 | 0.00 | 0.00 | 0.00 | 93 | 1022.5 |
| 20260906095016 | 59 | 140 | 0.0 | 1.7 | 0.00 | 0.00 | 0.00 | 93 | 1022.5 |
| 20260906094532 | 59 | 140 | 0.0 | 1.7 | 0.00 | 0.00 | 0.00 | 93 | 1022.5 |
| 20260906094014 | 59 | 140 | 0.0 | 1.7 | 0.00 | 0.00 | 0.00 | 93 | 1022.7 |
| 20260906093510 | 59 | 172 | 0.0 | 1.7 | 0.00 | 0.00 | 0.00 | 93 | 1022.7 |
| 20260906093020 | 59 | 157 | 0.0 | 1.7 | 0.00 | 0.00 | 0.00 | 93 | 1022.7 |
| 20260906092510 | 59 | 157 | 0.0 | 1.7 | 0.00 | 0.00 | 0.00 | 93 | 1022.7 |
| 20260906092020 | 60 | 157 | 0.0 | 0.9 | 0.00 | 0.00 | 0.00 | 93 | 1022.7 |
| 20260906091522 | 60 | 157 | 0.0 | 1.7 | 0.00 | 0.00 | 0.00 | 93 | 1022.7 |
| 20260906091013 | 60 | 157 | 0.0 | 1.7 | 0.00 | 0.00 | 0.00 | 93 | 1022.6 |
| 20260906090512 | 60 | 157 | 0.0 | 1.7 | 0.00 | 0.00 | 0.00 | 93 | 1022.7 |
| 20260906090044 | 60 | 157 | 0.0 | 1.7 | 0.00 | 0.00 | 0.00 | 93 | 1022.7 |
| 20260906085515 | 60 | 171 | 0.0 | 1.7 | 0.00 | 0.00 | 0.00 | 93 | 1022.6 |
| 20260906085013 | 60 | 165 | 0.0 | 1.7 | 0.00 | 0.00 | 0.00 | 93 | 1022.6 |
| 20260906084529 | 60 | 146 | 0.0 | 2.6 | 0.00 | 0.00 | 0.00 | 93 | 1022.6 |
| 20260906084015 | 60 | 146 | 0.0 | 2.6 | 0.00 | 0.00 | 0.00 | 93 | 1022.8 |
| 20260906083517 | 60 | 143 | 0.0 | 1.7 | 0.00 | 0.00 | 0.00 | 93 | 1022.9 |
| 20260906083036 | 60 | 145 | 0.0 | 0.9 | 0.00 | 0.00 | 0.00 | 93 | 1022.9 |
| 20260906082509 | 60 | 128 | 0.0 | 1.7 | 0.00 | 0.00 | 0.00 | 93 | 1023.0 |
| 20260906082012 | 60 | 128 | 0.0 | 1.7 | 0.00 | 0.00 | 0.00 | 93 | 1022.9 |
| 20260906081518 | 60 | 128 | 0.0 | 1.7 | 0.00 | 0.00 | 0.00 | 93 | 1022.9 |
| 20260906081013 | 60 | 128 | 0.0 | 1.7 | 0.00 | 0.00 | 0.00 | 93 | 1022.8 |
| 20260906080514 | 60 | 128 | 0.0 | 1.7 | 0.00 | 0.00 | 0.00 | 93 | 1022.7 |
| 20260906080024 | 61 | 109 | 0.0 | 1.7 | 0.00 | 0.00 | 0.00 | 93 | 1022.8 |
| 20260906075515 | 61 | 98 | 0.0 | 1.7 | 0.00 | 0.00 | 0.00 | 93 | 1022.8 |
| 20260906075014 | 61 | 98 | 0.0 | 1.7 | 0.00 | 0.00 | 0.00 | 93 | 1022.7 |
| 20260906074528 | 61 | 98 | 0.0 | 1.7 | 0.00 | 0.00 | 0.00 | 93 | 1022.8 |
| 20260906074016 | 61 | 67 | 0.0 | 1.7 | 0.00 | 0.00 | 0.00 | 93 | 1022.8 |
| 20260906073516 | 61 | 78 | 0.0 | 3.5 | 0.00 | 0.00 | 0.00 | 93 | 1022.6 |
| 20260906073031 | 61 | 63 | 0.0 | 3.5 | 0.00 | 0.00 | 0.00 | 93 | 1022.6 |
| 20260906072516 | 61 | 135 | 0.0 | 1.7 | 0.00 | 0.00 | 0.00 | 93 | 1022.7 |
| 20260906072022 | 61 | 135 | 0.0 | 1.7 | 0.00 | 0.00 | 0.00 | 93 | 1022.8 |
| 20260906071516 | 61 | 140 | 0.0 | 1.7 | 0.00 | 0.00 | 0.00 | 93 | 1022.9 |
| 20260906071010 | 61 | 140 | 0.0 | 1.7 | 0.00 | 0.00 | 0.00 | 93 | 1023.0 |
| 20260906070515 | 61 | 120 | 0.0 | 1.7 | 0.00 | 0.00 | 0.00 | 93 | 1023.1 |
| 20260906070029 | 61 | 82 | 0.0 | 1.7 | 0.00 | 0.00 | 0.00 | 92 | 1023.2 |
| 20260906065515 | 61 | 153 | 0.0 | 1.7 | 0.00 | 0.00 | 0.00 | 92 | 1023.1 |
| 20260906065013 | 61 | 143 | 0.0 | 1.7 | 0.00 | 0.00 | 0.00 | 92 | 1023.2 |
| 20260906064531 | 61 | 130 | 0.0 | 1.7 | 0.00 | 0.00 | 0.00 | 92 | 1023.2 |
| 20260906064017 | 61 | 80 | 0.0 | 1.7 | 0.00 | 0.00 | 0.00 | 92 | 1023.5 |
| 20260906063515 | 61 | 121 | 0.0 | 0.0 | 0.00 | 0.00 | 0.00 | 92 | 1023.5 |
| 20260906063043 | 61 | 121 | 0.0 | 0.0 | 0.00 | 0.00 | 0.00 | 92 | 1023.4 |
| 20260906062520 | 61 | 121 | 0.0 | 0.0 | 0.00 | 0.00 | 0.00 | 92 | 1023.6 |
| 20260906062016 | 61 | 121 | 0.0 | 0.0 | 0.00 | 0.00 | 0.00 | 92 | 1023.6 |
| 20260906061534 | 61 | 121 | 0.0 | 0.0 | 0.00 | 0.00 | 0.00 | 92 | 1023.6 |
| 20260906061019 | 61 | 121 | 0.0 | 0.0 | 0.00 | 0.00 | 0.00 | 92 | 1023.6 |
| 20260906060511 | 61 | 121 | 0.0 | 0.9 | 0.00 | 0.00 | 0.00 | 91 | 1023.6 |
| 20260906060019 | 62 | 121 | 0.0 | 0.9 | 0.00 | 0.00 | 0.00 | 91 | 1023.6 |
| 20260906055514 | 62 | 121 | 0.0 | 0.9 | 0.00 | 0.00 | 0.00 | 91 | 1023.6 |
| 20260906055012 | 62 | 121 | 0.0 | 0.0 | 0.00 | 0.00 | 0.00 | 91 | 1023.6 |
| 20260906054527 | 62 | 121 | 0.0 | 0.0 | 0.00 | 0.00 | 0.00 | 91 | 1023.5 |
| 20260906054014 | 62 | 121 | 0.0 | 0.0 | 0.00 | 0.00 | 0.00 | 90 | 1023.5 |
| 20260906053514 | 62 | 121 | 0.0 | 0.0 | 0.00 | 0.00 | 0.00 | 90 | 1023.4 |
| 20260906053026 | 62 | 121 | 0.0 | 0.0 | 0.00 | 0.00 | 0.00 | 90 | 1023.3 |
| 20260906052519 | 62 | 121 | 0.0 | 1.7 | 0.00 | 0.00 | 0.00 | 90 | 1023.3 |
| 20260906052018 | 62 | 121 | 0.0 | 1.7 | 0.00 | 0.00 | 0.00 | 90 | 1023.3 |
| 20260906051550 | 62 | 120 | 0.0 | 1.7 | 0.00 | 0.00 | 0.00 | 90 | 1023.3 |
| 20260906051016 | 62 | 120 | 0.0 | 1.7 | 0.00 | 0.00 | 0.00 | 90 | 1023.2 |
| 20260906050518 | 63 | 120 | 0.0 | 1.7 | 0.00 | 0.00 | 0.00 | 90 | 1023.2 |
| 20260906050040 | 63 | 120 | 0.0 | 1.7 | 0.00 | 0.00 | 0.00 | 89 | 1023.3 |
| 20260906045520 | 63 | 120 | 0.0 | 1.7 | 0.00 | 0.00 | 0.00 | 89 | 1023.5 |
| 20260906045014 | 63 | 120 | 0.0 | 0.0 | 0.00 | 0.00 | 0.00 | 89 | 1023.7 |
| 20260906044518 | 63 | 120 | 0.0 | 0.0 | 0.00 | 0.00 | 0.00 | 89 | 1023.7 |
| 20260906044018 | 63 | 120 | 0.0 | 0.0 | 0.00 | 0.00 | 0.00 | 89 | 1023.7 |
| 20260906043515 | 64 | 120 | 0.0 | 0.0 | 0.00 | 0.00 | 0.00 | 89 | 1023.5 |
| 20260906043028 | 64 | 120 | 0.0 | 1.7 | 0.00 | 0.00 | 0.00 | 89 | 1023.5 |
| 20260906042503 | 64 | 120 | 0.0 | 1.7 | 0.00 | 0.00 | 0.00 | 89 | 1023.4 |
| 20260906042001 | 64 | 121 | 0.0 | 1.7 | 0.00 | 0.00 | 0.00 | 89 | 1023.2 |
| 20260906041506 | 64 | 91 | 0.0 | 1.7 | 0.00 | 0.00 | 0.00 | 89 | 1023.2 |
| 20260906041007 | 64 | 91 | 0.0 | 1.7 | 0.00 | 0.00 | 0.00 | 89 | 1023.1 |
| 20260906040503 | 64 | 91 | 0.0 | 0.9 | 0.00 | 0.00 | 0.00 | 88 | 1023.0 |
| 20260906040016 | 65 | 86 | 0.0 | 1.7 | 0.00 | 0.00 | 0.00 | 88 | 1023.1 |
| 20260906035503 | 65 | 86 | 0.0 | 1.7 | 0.00 | 0.00 | 0.00 | 88 | 1023.1 |
| 20260906035004 | 65 | 158 | 0.0 | 1.7 | 0.00 | 0.00 | 0.00 | 88 | 1023.0 |
| 20260906034534 | 65 | 131 | 0.0 | 3.5 | 0.00 | 0.00 | 0.00 | 88 | 1023.0 |
| 20260906034003 | 65 | 140 | 0.0 | 3.5 | 0.00 | 0.00 | 0.00 | 88 | 1023.1 |
| 20260906033503 | 65 | 165 | 0.0 | 4.3 | 0.00 | 0.00 | 0.00 | 88 | 1023.2 |
| 20260906033003 | 65 | 181 | 0.9 | 4.3 | 0.00 | 0.00 | 0.00 | 88 | 1023.4 |
| 20260906032503 | 65 | 158 | 0.9 | 5.2 | 0.00 | 0.00 | 0.00 | 87 | 1023.5 |
| 20260906032003 | 65 | 166 | 0.0 | 5.2 | 0.00 | 0.00 | 0.00 | 87 | 1023.6 |
| 20260906031507 | 65 | 161 | 1.7 | 3.5 | 0.00 | 0.00 | 0.00 | 87 | 1023.5 |
| 20260906031005 | 66 | 169 | 0.0 | 2.6 | 0.00 | 0.00 | 0.00 | 87 | 1023.7 |
| 20260906030504 | 66 | 153 | 0.0 | 3.5 | 0.00 | 0.00 | 0.00 | 87 | 1023.5 |
| 20260906030004 | 66 | 133 | 0.0 | 5.2 | 0.00 | 0.00 | 0.00 | 87 | 1023.6 |
| 20260906025505 | 66 | 161 | 0.9 | 4.3 | 0.00 | 0.00 | 0.00 | 87 | 1023.5 |
| 20260906025003 | 66 | 133 | 0.9 | 6.1 | 0.00 | 0.00 | 0.00 | 87 | 1023.4 |
| 20260906024505 | 66 | 192 | 0.9 | 6.1 | 0.00 | 0.00 | 0.00 | 87 | 1023.4 |
| 20260906024003 | 66 | 192 | 1.7 | 6.1 | 0.00 | 0.00 | 0.00 | 87 | 1023.4 |
| 20260906023503 | 66 | 190 | 0.9 | 4.3 | 0.00 | 0.00 | 0.00 | 87 | 1023.5 |
| 20260906023002 | 66 | 138 | 1.7 | 5.2 | 0.00 | 0.00 | 0.00 | 87 | 1023.4 |
| 20260906022502 | 66 | 143 | 1.7 | 5.2 | 0.00 | 0.00 | 0.00 | 87 | 1023.4 |
| 20260906022004 | 66 | 180 | 0.9 | 4.3 | 0.00 | 0.00 | 0.00 | 87 | 1023.5 |
| 20260906021504 | 66 | 202 | 0.9 | 4.3 | 0.00 | 0.00 | 0.00 | 87 | 1023.5 |
| 20260906021004 | 66 | 79 | 0.0 | 2.6 | 0.00 | 0.00 | 0.00 | 87 | 1023.3 |
| 20260906020503 | 66 | 173 | 0.0 | 5.2 | 0.00 | 0.00 | 0.00 | 87 | 1023.2 |
| 20260906020006 | 66 | 146 | 0.9 | 6.1 | 0.00 | 0.00 | 0.00 | 87 | 1022.9 |
| 20260906015504 | 67 | 178 | 1.7 | 6.1 | 0.00 | 0.00 | 0.00 | 87 | 1022.7 |
| 20260906015004 | 67 | 180 | 0.0 | 4.3 | 0.00 | 0.00 | 0.00 | 86 | 1022.6 |
| 20260906014504 | 67 | 160 | 1.7 | 4.3 | 0.00 | 0.00 | 0.00 | 86 | 1022.4 |
| 20260906014003 | 67 | 188 | 1.7 | 4.3 | 0.00 | 0.00 | 0.00 | 86 | 1022.2 |
| 20260906013504 | 67 | 179 | 0.0 | 3.5 | 0.00 | 0.00 | 0.00 | 86 | 1022.1 |
| 20260906013003 | 67 | 134 | 0.0 | 3.5 | 0.00 | 0.00 | 0.00 | 86 | 1021.9 |
| 20260906012503 | 67 | 159 | 0.0 | 3.5 | 0.00 | 0.00 | 0.00 | 86 | 1021.7 |
| 20260906012003 | 67 | 134 | 0.0 | 4.3 | 0.00 | 0.00 | 0.00 | 86 | 1021.6 |
| 20260906011507 | 67 | 149 | 0.9 | 4.3 | 0.00 | 0.00 | 0.00 | 85 | 1021.4 |
| 20260906011007 | 67 | 194 | 0.0 | 1.7 | 0.00 | 0.00 | 0.00 | 85 | 1021.3 |
| 20260906010504 | 68 | 146 | 0.0 | 1.7 | 0.00 | 0.00 | 0.00 | 85 | 1021.3 |
| 20260906010006 | 68 | 150 | 0.0 | 2.6 | 0.00 | 0.00 | 0.00 | 85 | 1021.2 |
| 20260906005503 | 68 | 150 | 0.0 | 2.6 | 0.00 | 0.00 | 0.00 | 84 | 1021.1 |
| 20260906005003 | 68 | 153 | 0.0 | 1.7 | 0.00 | 0.00 | 0.00 | 84 | 1021.0 |
| 20260906004521 | 68 | 151 | 0.0 | 1.7 | 0.00 | 0.00 | 0.00 | 84 | 1021.0 |
| 20260906004004 | 68 | 151 | 0.0 | 1.7 | 0.00 | 0.00 | 0.00 | 84 | 1021.0 |
| 20260906003504 | 68 | 138 | 0.0 | 1.7 | 0.00 | 0.00 | 0.00 | 83 | 1021.1 |
| 20260906003006 | 68 | 128 | 0.0 | 1.7 | 0.00 | 0.00 | 0.00 | 83 | 1021.1 |
| 20260906002503 | 69 | 151 | 0.0 | 1.7 | 0.00 | 0.00 | 0.00 | 83 | 1021.3 |
| 20260906002004 | 69 | 151 | 0.0 | 1.7 | 0.00 | 0.00 | 0.00 | 82 | 1021.4 |
| 20260906001507 | 69 | 140 | 0.0 | 1.7 | 0.00 | 0.00 | 0.00 | 82 | 1021.3 |
| 20260906001005 | 69 | 148 | 0.0 | 1.7 | 0.00 | 0.00 | 0.00 | 82 | 1021.3 |
| 20260906000505 | 69 | 128 | 0.0 | 1.7 | 0.00 | 0.00 | 0.00 | 82 | 1021.3 |
| 20260906000006 | 69 | 103 | 0.0 | 2.6 | 0.00 | 0.00 | 0.00 | 81 | 1021.4 |
| 20260905235503 | 69 | 141 | 0.0 | 2.6 | 0.00 | 0.00 | 0.00 | 81 | 1021.3 |
| 20260905235004 | 69 | 109 | 0.0 | 2.6 | 0.00 | 0.00 | 0.00 | 81 | 1021.3 |
| 20260905234508 | 70 | 105 | 0.9 | 2.6 | 0.00 | 0.00 | 0.00 | 81 | 1021.2 |
| 20260905234004 | 70 | 133 | 0.9 | 2.6 | 0.00 | 0.00 | 0.00 | 80 | 1021.3 |
| 20260905233505 | 70 | 50 | 0.0 | 1.7 | 0.00 | 0.00 | 0.00 | 80 | 1021.4 |
| 20260905233007 | 70 | 192 | 0.9 | 4.3 | 0.00 | 0.00 | 0.00 | 80 | 1021.6 |
| 20260905232504 | 70 | 86 | 0.9 | 6.1 | 0.00 | 0.00 | 0.00 | 79 | 1021.4 |
| 20260905232008 | 70 | 178 | 0.9 | 7.0 | 0.00 | 0.00 | 0.00 | 80 | 1021.4 |
| 20260905231521 | 71 | 232 | 0.0 | 9.6 | 0.00 | 0.00 | 0.00 | 80 | 1021.3 |
| 20260905231005 | 71 | 157 | 2.6 | 9.6 | 0.00 | 0.00 | 0.00 | 80 | 1020.9 |
| 20260905230506 | 71 | 128 | 0.9 | 7.8 | 0.00 | 0.00 | 0.00 | 80 | 1021.0 |
| 20260905230008 | 71 | 123 | 0.9 | 7.8 | 0.00 | 0.00 | 0.00 | 81 | 1021.0 |
| 20260905225507 | 70 | 134 | 3.5 | 7.8 | 0.00 | 0.00 | 0.00 | 80 | 1021.1 |
| 20260905225007 | 70 | 147 | 2.6 | 7.8 | 0.00 | 0.00 | 0.00 | 80 | 1021.3 |
| 20260905224508 | 70 | 138 | 1.7 | 7.0 | 0.00 | 0.00 | 0.00 | 81 | 1021.4 |
| 20260905224004 | 70 | 153 | 0.9 | 6.1 | 0.00 | 0.00 | 0.00 | 81 | 1021.4 |
| 20260905223508 | 70 | 168 | 0.9 | 3.5 | 0.00 | 0.00 | 0.00 | 81 | 1021.5 |
| 20260905223008 | 70 | 121 | 0.9 | 3.5 | 0.00 | 0.00 | 0.00 | 81 | 1021.5 |
| 20260905222508 | 70 | 163 | 0.0 | 2.6 | 0.00 | 0.00 | 0.00 | 81 | 1021.5 |
| 20260905222010 | 70 | 98 | 0.0 | 2.6 | 0.00 | 0.00 | 0.00 | 80 | 1021.5 |
| 20260905221507 | 70 | 180 | 0.9 | 5.2 | 0.00 | 0.00 | 0.00 | 81 | 1021.4 |
| 20260905221008 | 70 | 121 | 0.9 | 5.2 | 0.00 | 0.00 | 0.00 | 81 | 1021.3 |
| 20260905220505 | 70 | 121 | 0.9 | 3.5 | 0.00 | 0.00 | 0.00 | 81 | 1021.4 |
| 20260905220011 | 70 | 122 | 1.7 | 3.5 | 0.00 | 0.00 | 0.00 | 81 | 1021.4 |
| 20260905215508 | 70 | 126 | 0.9 | 5.2 | 0.00 | 0.00 | 0.00 | 81 | 1021.6 |
| 20260905215007 | 70 | 167 | 0.9 | 5.2 | 0.00 | 0.00 | 0.00 | 81 | 1021.7 |
| 20260905214521 | 70 | 153 | 0.9 | 3.5 | 0.00 | 0.00 | 0.00 | 82 | 1021.6 |
| 20260905214007 | 69 | 121 | 0.9 | 4.3 | 0.00 | 0.00 | 0.00 | 82 | 1021.8 |
| 20260905213512 | 69 | 51 | 0.0 | 4.3 | 0.00 | 0.00 | 0.00 | 82 | 1021.8 |
| 20260905213011 | 69 | 121 | 0.9 | 4.3 | 0.00 | 0.00 | 0.00 | 82 | 1021.8 |
| 20260905212509 | 69 | 140 | 1.7 | 4.3 | 0.00 | 0.00 | 0.00 | 82 | 1021.9 |
| 20260905212008 | 69 | 138 | 0.9 | 6.1 | 0.00 | 0.00 | 0.00 | 81 | 1022.0 |
| 20260905211510 | 69 | 132 | 1.7 | 6.1 | 0.00 | 0.00 | 0.00 | 82 | 1022.4 |
| 20260905211007 | 69 | 139 | 0.9 | 2.6 | 0.00 | 0.00 | 0.00 | 82 | 1022.6 |
| 20260905210507 | 69 | 72 | 0.0 | 1.7 | 0.00 | 0.00 | 0.00 | 83 | 1022.7 |
| 20260905210013 | 69 | 49 | 0.0 | 1.7 | 0.00 | 0.00 | 0.00 | 83 | 1022.8 |
| 20260905205507 | 69 | 49 | 0.0 | 1.7 | 0.00 | 0.00 | 0.00 | 83 | 1022.9 |
| 20260905205005 | 69 | 140 | 0.0 | 1.7 | 0.00 | 0.00 | 0.00 | 83 | 1023.0 |
| 20260905204509 | 69 | 63 | 0.0 | 1.7 | 0.00 | 0.00 | 0.00 | 83 | 1023.2 |
| 20260905204008 | 69 | 140 | 0.9 | 1.7 | 0.00 | 0.00 | 0.00 | 83 | 1023.2 |
| 20260905203508 | 69 | 44 | 0.0 | 1.7 | 0.00 | 0.00 | 0.00 | 82 | 1023.2 |
| 20260905203012 | 69 | 59 | 0.0 | 1.7 | 0.00 | 0.00 | 0.00 | 83 | 1023.3 |